EXS11AF LEPA-EGNT

Flight info

Callsign EXS11AF
Flight time N/A
Altitude 38000
Route DRAGO DCT PAPOS DCT UMURE N863 GIROM DCT GONUP DCT TUPAR UN861 ANG DCT AKIKI UN867 VASUX DCT LESTA UY250 RIMTO
Aircraft B738/M-SDE2E3FGHIRWXY/LB1

Departure

Time N/A
Airport Palma de Mallorca Airport (LEPA)

Arrival

Time 2026-05-05 21:14
Airport Newcastle International Airport (EGNT)
Time Latitude Longitude Altitude Speed Heading
2026-05-05 21:01 54.61401 -1.71778 11757 ft 337 kts
2026-05-05 21:01 54.63644 -1.71063 11665 ft 324 kts
2026-05-05 21:02 54.65818 -1.70368 11581 ft 312 kts
2026-05-05 21:02 54.67910 -1.69699 11500 ft 300 kts
2026-05-05 21:02 54.69932 -1.69056 11385 ft 290 kts
2026-05-05 21:02 54.71886 -1.68456 11122 ft 287 kts
2026-05-05 21:03 54.73857 -1.67911 10785 ft 285 kts
2026-05-05 21:03 54.75782 -1.68424 10460 ft 279 kts 334°
2026-05-05 21:03 54.77318 -1.70368 10164 ft 274 kts 309°
2026-05-05 21:03 54.78387 -1.73082 9843 ft 272 kts 301°
2026-05-05 21:04 54.79354 -1.75909 9489 ft 272 kts 300°
2026-05-05 21:04 54.80300 -1.78741 9172 ft 270 kts 300°
2026-05-05 21:04 54.81170 -1.81613 8829 ft 269 kts 290°
2026-05-05 21:04 54.81586 -1.84732 8526 ft 269 kts 281°
2026-05-05 21:05 54.81880 -1.87938 8216 ft 267 kts 280°
2026-05-05 21:05 54.82151 -1.91120 7898 ft 266 kts 280°
2026-05-05 21:05 54.82414 -1.94300 7595 ft 265 kts 280°
2026-05-05 21:05 54.82669 -1.97464 7280 ft 264 kts 280°
2026-05-05 21:06 54.82915 -2.00617 7031 ft 262 kts 280°
2026-05-05 21:06 54.83150 -2.03695 6780 ft 259 kts 280°
2026-05-05 21:06 54.83379 -2.06764 6593 ft 254 kts 281°
2026-05-05 21:06 54.83962 -2.09592 6357 ft 246 kts 308°
2026-05-05 21:07 54.85239 -2.11462 6116 ft 238 kts 334°
2026-05-05 21:07 54.86757 -2.12571 5790 ft 234 kts 339°
2026-05-05 21:07 54.88241 -2.13564 5506 ft 227 kts 340°
2026-05-05 21:07 54.89761 -2.14040 5203 ft 220 kts
2026-05-05 21:08 54.91160 -2.13136 5018 ft 211 kts 28°
2026-05-05 21:08 54.92300 -2.11639 4841 ft 203 kts 52°
2026-05-05 21:08 54.93003 -2.09540 4744 ft 200 kts 59°
2026-05-05 21:08 54.93645 -2.07410 4614 ft 202 kts 61°
2026-05-05 21:09 54.94258 -2.05197 4485 ft 202 kts 63°
2026-05-05 21:09 54.94840 -2.03002 4440 ft 197 kts 63°
2026-05-05 21:09 54.95405 -2.00847 4185 ft 192 kts 63°
2026-05-05 21:09 54.95954 -1.98748 3931 ft 188 kts 64°
2026-05-05 21:10 54.96485 -1.96720 3665 ft 184 kts 64°
2026-05-05 21:10 54.97011 -1.94716 3413 ft 180 kts 64°
2026-05-05 21:10 54.97523 -1.92761 3165 ft 175 kts 64°
2026-05-05 21:10 54.98025 -1.90851 2923 ft 172 kts 64°
2026-05-05 21:11 54.98521 -1.88962 2690 ft 170 kts 64°
2026-05-05 21:11 54.99012 -1.87096 2447 ft 168 kts 64°
2026-05-05 21:11 54.99490 -1.85278 2203 ft 161 kts 63°
2026-05-05 21:11 54.99941 -1.83562 1985 ft 150 kts 63°
2026-05-05 21:12 55.00375 -1.81917 1781 ft 147 kts 63°
2026-05-05 21:12 55.00781 -1.80376 1599 ft 136 kts 63°
2026-05-05 21:12 55.01168 -1.78907 1419 ft 135 kts 63°
2026-05-05 21:12 55.01560 -1.77422 1190 ft 134 kts 63°
2026-05-05 21:13 55.01954 -1.75932 1006 ft 138 kts 63°
2026-05-05 21:13 55.02364 -1.74387 807 ft 142 kts 63°
2026-05-05 21:13 55.02778 -1.72803 597 ft 145 kts 64°
2026-05-05 21:13 55.03201 -1.71205 398 ft 147 kts 63°
2026-05-05 21:14 55.03630 -1.69599 258 ft 139 kts 65°
2026-05-05 21:14 55.03959 -1.68352 247 ft 83 kts 65°
2026-05-05 21:14 55.04111 -1.67776 246 ft 23 kts 65°
2026-05-05 21:14 55.04173 -1.67544 243 ft 20 kts 64°
2026-05-05 21:15 55.04212 -1.67402 241 ft 10 kts 62°
2026-05-05 21:15 55.04268 -1.67362 240 ft 9 kts 349°
2026-05-05 21:15 55.04320 -1.67421 240 ft 9 kts 302°
2026-05-05 21:15 55.04331 -1.67528 241 ft 9 kts 274°
2026-05-05 21:16 55.04327 -1.67643 243 ft 10 kts 252°
2026-05-05 21:16 55.04300 -1.67747 244 ft 9 kts 245°
2026-05-05 21:16 55.04273 -1.67849 245 ft 9 kts 246°
2026-05-05 21:16 55.04255 -1.67920 246 ft 10 kts 245°
2026-05-05 21:17 55.04223 -1.68042 246 ft 12 kts 245°
2026-05-05 21:17 55.04165 -1.68259 247 ft 17 kts 245°
2026-05-05 21:17 55.04131 -1.68391 247 ft 18 kts 245°
2026-05-05 21:17 55.04079 -1.68585 248 ft 17 kts 245°
2026-05-05 21:18 55.04030 -1.68772 249 ft 17 kts 245°
2026-05-05 21:18 55.03983 -1.68949 250 ft 16 kts 245°
2026-05-05 21:18 55.03936 -1.69122 252 ft 15 kts 245°
2026-05-05 21:18 55.03893 -1.69288 253 ft 15 kts 245°
2026-05-05 21:19 55.03849 -1.69447 255 ft 15 kts 245°
2026-05-05 21:19 55.03811 -1.69624 256 ft 16 kts 251°
2026-05-05 21:19 55.03786 -1.69819 258 ft 17 kts 261°
2026-05-05 21:19 55.03774 -1.70017 260 ft 16 kts 268°
2026-05-05 21:20 55.03776 -1.70207 263 ft 15 kts 274°
2026-05-05 21:20 55.03780 -1.70367 266 ft 10 kts 262°
2026-05-05 21:20 55.03737 -1.70427 266 ft 6 kts 189°
2026-05-05 21:20 55.03709 -1.70450 266 ft 3 kts 234°
2026-05-05 21:21 55.03702 -1.70487 266 ft 3 kts 258°
2026-05-05 21:21 55.03699 -1.70533 266 ft 4 kts 264°
2026-05-05 21:21 55.03697 -1.70562 266 ft 1 kts 264°
2026-05-05 21:21 55.03697 -1.70563 266 ft 0 kts 264°